GW2897 Weather Reports


Display with metric or nautical units.
time (UTC)temp
F
wind
direction
speed
MPH
gust
MPH
rain 1hr
in
rain 24hr
in
rain mn
in
humidity
%
barometer
mb
20260504050004 50 0 0.0 0.0 0.00 0.00 0.00 88 1017.2
20260504045435 50 0 0.0 0.0 0.00 0.00 0.00 87 1017.2
20260504044504 51 0 0.0 0.0 0.00 0.00 0.00 86 1017.0
20260504043603 52 0 0.0 0.0 0.00 0.00 0.00 84 1017.0
20260504042723 52 146 0.0 1.0 0.00 0.00 0.00 84 1016.9
20260504041804 52 126 0.0 1.0 0.00 0.00 0.00 82 1017.0
20260504040903 52 109 0.0 2.0 0.00 0.00 0.00 81 1017.0
20260504040004 52 116 0.0 2.0 0.00 0.00 0.00 82 1017.1
20260504035426 52 117 0.0 1.0 0.00 0.00 0.00 83 1017.1
20260504034504 53 127 0.0 2.0 0.00 0.00 0.00 82 1017.0
20260504033603 53 131 0.0 2.0 0.00 0.00 0.00 81 1017.0
20260504032704 53 127 0.0 1.0 0.00 0.00 0.00 78 1017.0
20260504031824 54 128 0.0 2.0 0.00 0.00 0.00 77 1017.0
20260504030903 54 120 1.0 2.0 0.00 0.00 0.00 78 1016.9
20260504030011 54 132 0.0 2.0 0.00 0.00 0.00 80 1016.9
20260504025417 54 125 0.0 1.0 0.00 0.00 0.00 80 1016.9
20260504024524 54 140 0.0 1.0 0.00 0.00 0.00 80 1016.9
20260504023603 54 132 0.0 1.0 0.00 0.00 0.00 80 1016.8
20260504022703 54 134 0.0 1.0 0.00 0.00 0.00 78 1016.7
20260504021803 55 136 0.0 3.0 0.00 0.00 0.00 76 1016.7
20260504020904 54 133 0.0 1.0 0.00 0.00 0.00 80 1016.6
20260504020004 54 136 0.0 1.0 0.00 0.00 0.00 79 1016.5
20260504015406 54 138 0.0 1.0 0.00 0.00 0.00 78 1016.5
20260504014505 54 126 0.0 1.0 0.00 0.00 0.00 82 1016.4
20260504013603 54 0 0.0 0.0 0.00 0.01 0.00 83 1016.2
20260504012704 54 0 0.0 0.0 0.00 0.02 0.00 83 1016.2
20260504011804 54 0 0.0 0.0 0.00 0.03 0.00 81 1016.1
20260504010904 55 0 0.0 0.0 0.00 0.06 0.00 79 1016.0
20260504010003 56 0 0.0 0.0 0.00 0.08 0.00 78 1016.0
20260504005404 56 0 0.0 0.0 0.00 0.08 0.00 75 1016.0
20260504004503 57 0 0.0 0.0 0.00 0.08 0.00 74 1015.9
20260504003603 58 0 0.0 0.0 0.00 0.08 0.00 71 1015.8
20260504002703 59 0 0.0 0.0 0.00 0.08 0.00 67 1015.8
20260504001805 61 0 0.0 0.0 0.00 0.08 0.00 66 1015.8
20260504000904 62 121 0.0 1.0 0.00 0.08 0.00 62 1015.6
20260504000004 65 0 0.0 0.0 0.00 0.08 0.00 61 1015.6
20260503235403 67 122 0.0 1.0 0.00 0.08 0.00 57 1015.7
20260503234503 69 136 0.0 1.0 0.00 0.08 0.00 55 1015.8
20260503233629 70 201 0.0 1.0 0.00 0.08 0.00 50 1015.8
20260503232704 70 265 0.0 2.0 0.00 0.08 0.00 48 1015.8
20260503231804 70 275 1.0 3.0 0.00 0.08 0.00 48 1015.8
20260503230903 70 259 1.0 5.0 0.00 0.08 0.00 44 1016.0
20260503230026 72 284 0.0 5.0 0.00 0.08 0.00 47 1016.0
20260503225404 72 279 0.0 2.0 0.00 0.08 0.00 45 1016.0
20260503224503 70 266 2.0 5.0 0.00 0.08 0.00 44 1016.1
20260503223603 70 263 2.0 7.0 0.00 0.08 0.00 41 1016.1
20260503222703 70 284 3.0 7.0 0.00 0.08 0.00 43 1016.1
20260503221803 69 290 4.0 8.0 0.00 0.08 0.00 42 1016.1
20260503220920 70 269 3.0 7.0 0.00 0.08 0.00 44 1016.0
20260503220003 70 281 2.0 6.0 0.00 0.08 0.00 46 1016.0
20260503215404 70 290 3.0 7.0 0.00 0.08 0.00 47 1016.1
20260503214504 69 292 5.0 11.0 0.00 0.08 0.00 44 1016.1
20260503213603 70 284 3.0 8.0 0.00 0.08 0.00 45 1016.0
20260503212724 69 273 3.0 10.0 0.00 0.08 0.00 45 1016.1
20260503211803 69 272 3.0 10.0 0.00 0.08 0.00 47 1016.1
20260503210903 69 291 5.0 11.0 0.00 0.08 0.00 46 1016.2
20260503210005 69 295 3.0 8.0 0.00 0.08 0.00 48 1016.3
20260503205425 68 293 4.0 13.0 0.00 0.08 0.00 51 1016.2
20260503204503 68 282 5.0 13.0 0.00 0.08 0.00 47 1016.4
20260503203603 69 297 5.0 13.0 0.00 0.08 0.00 46 1016.5
20260503202724 68 292 4.0 13.0 0.00 0.08 0.00 47 1016.5
20260503201803 68 296 5.0 12.0 0.00 0.08 0.00 46 1016.7
20260503200925 68 286 6.0 13.0 0.00 0.08 0.00 50 1016.8
20260503200024 68 287 5.0 11.0 0.00 0.08 0.00 47 1017.0
20260503195425 68 278 3.0 11.0 0.00 0.08 0.00 46 1017.1
20260503194512 68 290 3.0 7.0 0.00 0.08 0.00 48 1017.3
20260503193626 68 229 2.0 10.0 0.00 0.08 0.00 50 1017.5
20260503192705 68 294 2.0 9.0 0.00 0.08 0.00 49 1017.7
20260503191901 68 279 3.0 8.0 0.00 0.08 0.00 49 1017.9
20260503190903 67 284 3.0 8.0 0.00 0.08 0.00 50 1018.1
20260503190004 68 149 3.0 7.0 0.00 0.08 0.00 49 1018.3
20260503185403 67 251 3.0 7.0 0.00 0.08 0.00 50 1018.3
20260503184503 67 268 3.0 8.0 0.00 0.08 0.00 51 1018.4
20260503183603 66 293 2.0 8.0 0.00 0.08 0.00 53 1018.5
20260503182704 66 274 2.0 10.0 0.00 0.08 0.00 51 1018.6
20260503181803 66 199 2.0 8.0 0.00 0.08 0.00 51 1018.8
20260503180005 65 278 2.0 10.0 0.00 0.08 0.00 50 1018.9
20260503175404 65 286 4.0 10.0 0.00 0.08 0.00 52 1018.9
20260503174505 65 211 3.0 9.0 0.00 0.08 0.00 48 1018.9
20260503173605 65 258 4.0 15.0 0.00 0.08 0.00 51 1019.0
20260503172706 66 270 2.0 7.0 0.00 0.08 0.00 51 1019.0
20260503171850 65 279 4.0 10.0 0.00 0.08 0.00 50 1019.2
20260503170905 66 110 1.0 4.0 0.00 0.08 0.00 52 1019.2
20260503150904 60 75 2.0 5.0 0.00 0.09 0.00 62 1020.3
20260503130904 50 316 1.0 8.0 0.00 0.10 0.00 89 1019.7
20260503080904 46 0 0.0 0.0 0.00 0.28 0.00 96 1016.6